Tracking 29967 objects as of 5-Dec-2024
HD Live streaming from Space Station
objects crossing your sky now

STTW-3

Track STTW-3 now!
STTW-3 is classified as:


NORAD ID: 19710
Int'l Code: 1988-111A
Perigee: 35,744.8 km
Apogee: 35,798.0 km
Inclination: 14.4 °
Period: 1,435.0 minutes
Semi major axis: 42142 km
RCS: 6.3096 m2 (large)
Launch date: December 22, 1988
Source: People's Republic of China (PRC)
Launch site: Xichang Space Center, China (XSC)
Your satellite tracking list
Your tracking list is empty




NASA's NSSDC Master Catalog

Two Line Element Set (TLE):
1 19710U 88111A   24340.10421524 -.00000076  00000-0  00000+0 0  9992
2 19710  14.3516 349.7724 0006317 177.0866  16.0955  1.00351560125249
Source of the keplerian elements: AFSPC